Weather reports worldwide

Advertisment
Weihenstephan-Dürnast, Germany (10863): temperature & dewpoint: 19.08.2019 08:00:00 - 25.08.2019 08:00:00 (CEST)Weihenstephan-Dürnast, Germany (10863): temperature 5cm & temperature -5cm: 19.08.2019 08:00:00 - 25.08.2019 08:00:00 (CEST)Weihenstephan-Dürnast, Germany (10863): temperature -20cm & temperature -100cm: 19.08.2019 08:00:00 - 25.08.2019 08:00:00 (CEST)Weihenstephan-Dürnast, Germany (10863): wind speed & gusts: 19.08.2019 08:00:00 - 25.08.2019 08:00:00 (CEST)Weihenstephan-Dürnast, Germany (10863): wind direction: 19.08.2019 08:00:00 - 25.08.2019 08:00:00 (CEST)Weihenstephan-Dürnast, Germany (10863): reduced air pressure: 19.08.2019 08:00:00 - 25.08.2019 08:00:00 (CEST)Weihenstephan-Dürnast, Germany (10863): visibility: 19.08.2019 08:00:00 - 25.08.2019 08:00:00 (CEST)Weihenstephan-Dürnast, Germany (10863): sunshine duration: 19.08.2019 08:00:00 - 25.08.2019 08:00:00 (CEST)Weihenstephan-Dürnast, Germany (10863): precipitation: 19.08.2019 08:00:00 - 25.08.2019 08:00:00 (CEST)
Date & Time tt [°C] td [°C] tt 5cm [°C] tt -5cm [°C] tt -20cm [°C] tt -100cm [°C] ff [km/h] ff [kn] fx [km/h] fx [kn] dd ppp [hPa] vv [km] sd [min] rr [mm]
25.08.2019 08:00:00 - - - - - - - - - - - - - - -
25.08.2019 07:00:00 15,5 15,1 14,6 16,7 19,8 18,1 3 2 8 4 W 1019,1 4,9 0 0,0
25.08.2019 06:00:00 14,7 14,4 13,4 16,9 20,1 18,1 0 0 4 2 N 1019,0 4,3 0 0,0
25.08.2019 05:00:00 14,7 14,2 13,5 17,3 20,3 18,1 2 1 9 5 NNE 1019,0 4,1 0 0,0
25.08.2019 04:00:00 16,5 15,4 15,3 17,8 20,6 18,1 6 3 8 4 ESE 1018,6 11 0 0,0
25.08.2019 03:00:00 16,9 15,4 15,4 18,2 21,0 18,1 6 3 9 5 W 1018,5 10 0 0,0
25.08.2019 02:00:00 16,2 15,9 15,0 18,6 21,3 18,1 2 1 4 2 NW 1018,8 4,7 0 0,0
25.08.2019 01:00:00 16,6 15,6 15,2 19,3 21,6 18,1 0 0 6 3 N 1018,8 5 0 0,0
25.08.2019 00:00:00 18,0 16,7 16,4 20,1 22,0 18,1 2 1 9 5 WNW 1018,5 7 0 0,0
24.08.2019 23:00:00 18,8 17,3 17,4 21,0 22,3 18,1 3 2 16 9 E 1018,8 7 0 0,0
24.08.2019 22:00:00 18,7 17,5 17,9 22,0 22,6 18,1 3 1 5 3 W 1018,8 7 0 0,0
24.08.2019 21:00:00 20,2 17,8 19,0 23,3 22,8 18,1 3 2 6 3 W 1018,3 10 0 0,0
24.08.2019 20:00:00 23,4 18,6 23,1 25,2 22,8 18,1 5 3 6 4 W 1017,6 13 46 0,0
24.08.2019 19:00:00 26,3 16,5 27,1 26,9 22,6 18,1 6 4 10 5 SSE 1017,2 16 60 0,0
24.08.2019 18:00:00 26,9 16,2 29,8 28,6 22,3 18,1 5 3 12 6 E 1017,0 15 60 0,0
24.08.2019 17:00:00 26,8 15,2 33,0 29,7 21,8 18,1 7 4 18 10 N 1016,9 19 60 0,0
24.08.2019 16:00:00 26,8 16,6 34,7 30,2 21,2 18,1 7 4 11 6 N 1017,4 20 60 0,0
24.08.2019 15:00:00 26,1 17,4 31,0 29,6 20,5 18,1 7 4 15 8 SSE 1018,0 18 60 0,0
24.08.2019 14:00:00 25,3 16,1 32,0 28,8 19,8 18,1 3 2 14 8 ESE 1018,2 11 60 0,0
24.08.2019 13:00:00 24,4 16,7 30,7 27,5 19,2 18,1 5 3 13 7 SSW 1018,8 9 60 0,0
24.08.2019 12:00:00 23,2 17,1 28,1 26,0 18,6 18,1 7 4 16 9 SSE 1019,3 10 60 0,0
24.08.2019 11:00:00 21,5 16,1 27,3 23,9 18,2 18,1 5 3 14 8 E 1019,7 9 59 0,0
24.08.2019 10:00:00 20,2 15,8 23,5 21,0 18,0 18,1 10 5 21 12 E 1019,8 11 60 0,0
24.08.2019 09:00:00 18,9 14,7 20,3 18,7 17,9 18,1 12 7 16 9 E 1020,1 12 60 0,0
24.08.2019 08:00:00 16,8 14,8 16,8 16,4 18,1 18,1 0 0 3 2 N 1020,6 8 55 0,0
24.08.2019 07:00:00 14,1 13,4 12,7 15,4 18,3 18,1 2 1 3 2 WSW 1021,2 5 0 0,0
24.08.2019 06:00:00 15,1 14,2 12,6 15,7 18,5 18,1 0 0 6 3 N 1021,1 9 0 0,0
24.08.2019 05:00:00 15,5 14,0 13,4 16,3 18,7 18,1 3 1 11 6 N 1021,0 7 0 0,0
24.08.2019 04:00:00 17,0 14,9 14,5 16,9 18,9 18,1 3 2 11 6 N 1020,8 14 0 0,0
24.08.2019 03:00:00 17,0 15,9 16,2 17,7 19,0 18,1 3 2 5 3 ENE 1021,1 10 0 0,0
24.08.2019 02:00:00 16,6 15,1 15,2 17,6 19,1 18,1 2 1 8 4 WSW 1021,5 8 0 0,0
24.08.2019 01:00:00 17,8 15,8 17,0 18,3 19,3 18,1 3 2 5 3 W 1021,4 12 0 0,0
24.08.2019 00:00:00 17,6 16,1 17,4 18,5 19,4 18,1 3 1 4 2 WNW 1022,0 11 0 0,0
23.08.2019 23:00:00 17,4 16,3 17,3 18,6 19,6 18,2 3 2 4 2 W 1022,5 9 0 0,0
23.08.2019 22:00:00 16,9 16,0 16,6 18,6 19,8 18,2 4 2 4 2 W 1023,0 8 0 0,0
23.08.2019 21:00:00 18,2 16,2 16,2 19,5 19,9 18,2 1 1 5 3 W 1022,9 10 0 0,0
23.08.2019 20:00:00 20,8 16,0 20,2 20,6 19,9 18,2 6 3 16 9 ESE 1022,2 14 21 0,0
23.08.2019 19:00:00 22,0 14,6 22,0 21,5 19,8 18,2 12 7 22 12 ENE 1021,8 20 25 0,0
23.08.2019 18:00:00 22,2 14,7 22,9 22,4 19,7 18,2 14 8 24 13 E 1022,0 14 32 0,0
23.08.2019 17:00:00 21,8 15,2 22,6 21,6 19,6 18,2 11 6 20 11 ENE 1022,5 17 1 0,0
23.08.2019 16:00:00 21,5 14,7 22,9 22,3 19,4 18,2 12 7 22 12 NE 1022,9 18 0 0,0
23.08.2019 15:00:00 21,6 14,5 24,2 22,8 19,2 18,2 13 7 24 13 ENE 1023,2 17 1 0,0
23.08.2019 14:00:00 21,3 14,4 24,1 23,5 18,8 18,2 15 8 25 13 E 1023,7 13 7 0,0
23.08.2019 13:00:00 21,3 15,2 23,4 22,2 18,5 18,2 14 7 20 11 E 1024,0 16 1 0,0
23.08.2019 12:00:00 21,0 14,7 22,5 23,6 18,0 18,2 13 7 24 13 ESE 1024,1 15 37 0,0
23.08.2019 11:00:00 20,6 14,5 25,5 22,6 17,6 18,2 11 6 20 11 ENE 1024,4 17 59 0,0
23.08.2019 10:00:00 19,6 14,5 23,4 20,6 17,3 18,2 10 5 17 9 E 1024,8 10 60 0,0
23.08.2019 09:00:00 16,8 14,1 17,5 17,5 17,2 18,2 5 3 9 5 E 1025,5 9 27 0,0
23.08.2019 08:00:00 14,4 13,8 14,6 15,4 17,3 18,2 2 1 5 3 E 1026,0 4,0 5 0,0
23.08.2019 07:00:00 13,0 12,6 13,1 14,6 17,5 18,2 4 2 6 3 ESE 1026,2 3,7 0 0,0
23.08.2019 06:00:00 12,6 12,1 12,0 14,7 17,7 18,2 2 1 4 2 E 1025,9 1,7 0 0,0
23.08.2019 05:00:00 13,1 12,8 12,9 15,0 17,8 18,2 2 1 4 2 W 1026,0 6 0 0,0
23.08.2019 04:00:00 13,3 12,9 13,0 15,3 18,1 18,2 0 0 5 3 N 1026,1 5 0 0,0
23.08.2019 03:00:00 13,6 12,9 13,4 14,9 18,4 18,3 4 2 6 3 W 1026,0 10 0 0,0
23.08.2019 02:00:00 12,2 11,8 10,8 15,1 18,7 18,3 4 2 5 3 WNW 1026,5 4,7 0 0,0
23.08.2019 01:00:00 13,4 13,1 11,9 15,9 19,0 18,3 2 1 6 3 WNW 1026,4 7 0 0,0
23.08.2019 00:00:00 14,1 13,4 12,9 16,9 19,2 18,3 3 2 5 3 WNW 1026,2 7 0 0,0
22.08.2019 23:00:00 15,9 14,9 14,7 18,1 19,4 18,3 4 2 6 3 N 1026,1 10 0 0,0
22.08.2019 22:00:00 17,1 15,6 16,8 18,8 19,5 18,3 3 1 3 2 W 1025,7 13 0 0,0
22.08.2019 21:00:00 17,3 15,4 17,2 19,3 19,6 18,3 2 1 7 4 ENE 1025,3 14 0 0,0
22.08.2019 20:00:00 19,1 13,2 17,5 20,1 19,7 18,3 5 3 9 5 SSE 1024,3 19 4 0,0
22.08.2019 19:00:00 20,3 14,1 20,5 21,3 19,6 18,3 3 2 18 10 NE 1023,7 22 3 0,0
22.08.2019 18:00:00 21,0 12,9 23,7 22,6 19,3 18,3 9 5 23 13 E 1023,7 21 43 0,0
22.08.2019 17:00:00 20,6 13,0 22,0 23,5 19,0 18,3 13 7 25 14 E 1023,6 21 27 0,0
22.08.2019 16:00:00 21,0 13,4 25,8 23,6 18,6 18,3 14 7 25 13 E 1023,7 18 45 0,0
22.08.2019 15:00:00 19,5 12,3 22,0 22,1 18,2 18,3 13 7 23 12 NE 1024,4 26 8 0,0
22.08.2019 14:00:00 19,6 13,0 23,5 21,8 17,8 18,3 10 5 31 17 NE 1024,3 23 11 0,0
22.08.2019 13:00:00 19,4 12,4 24,1 22,1 17,4 18,3 15 8 29 16 ENE 1024,5 20 20 0,0
22.08.2019 12:00:00 17,9 12,3 19,8 20,2 17,0 18,3 15 8 30 16 E 1025,1 21 30 0,0
22.08.2019 11:00:00 17,1 12,5 21,4 18,7 16,8 18,3 13 7 20 11 NE 1025,3 28 40 0,0
22.08.2019 10:00:00 15,1 11,9 15,7 15,9 16,8 18,3 15 8 26 14 NE 1025,5 22 2 0,0
22.08.2019 09:00:00 14,5 11,6 15,4 15,1 16,8 18,3 12 7 20 11 ENE 1025,7 22 0 0,0
22.08.2019 08:00:00 13,3 11,4 13,0 13,8 17,0 18,3 12 7 20 11 NE 1025,9 15 0 0,0
22.08.2019 07:00:00 12,6 11,1 11,3 13,3 17,2 18,3 8 4 20 11 NE 1025,8 14 0 0,0
22.08.2019 06:00:00 13,3 11,1 11,8 13,5 17,4 18,3 12 6 20 11 ENE 1025,2 17 0 0,0
22.08.2019 05:00:00 13,3 11,0 11,9 13,8 17,7 18,3 11 6 19 10 ENE 1025,4 27 0 0,0
22.08.2019 04:00:00 14,2 11,1 12,9 14,2 17,9 18,3 12 7 22 12 ENE 1025,4 36 0 0,0
22.08.2019 03:00:00 14,3 10,7 13,0 14,4 18,2 18,3 14 8 22 12 ENE 1025,7 37 0 0,0
22.08.2019 02:00:00 14,8 10,6 13,3 14,9 18,5 18,3 14 7 22 12 ENE 1026,1 70 0 0,0
22.08.2019 01:00:00 14,4 11,3 12,6 15,3 18,8 18,3 10 5 16 8 ENE 1026,7 43 0 0,0
22.08.2019 00:00:00 13,1 12,2 12,2 15,8 19,1 18,3 4 2 6 4 NNE 1027,5 25 0 0,0
21.08.2019 23:00:00 13,3 12,5 11,9 16,3 19,4 18,3 3 2 5 3 NNE 1027,4 21 0 0,0
21.08.2019 22:00:00 13,9 13,0 13,5 17,3 19,6 18,3 0 0 4 2 N 1027,5 20 0 0,0
21.08.2019 21:00:00 14,4 12,9 12,9 17,8 19,8 18,3 0 0 9 5 N 1027,4 21 0 0,0
21.08.2019 20:00:00 17,3 12,9 16,5 19,4 20,0 18,3 5 3 17 9 ESE 1026,5 33 37 0,0
21.08.2019 19:00:00 18,8 11,5 20,2 20,7 19,9 18,4 14 8 19 11 E 1026,1 26 49 0,0
21.08.2019 18:00:00 18,9 11,3 21,2 22,0 19,8 18,3 13 7 23 12 E 1026,5 23 58 0,0
21.08.2019 17:00:00 18,7 11,3 21,7 22,3 19,7 18,3 13 7 18 10 ENE 1026,6 33 12 0,0
21.08.2019 16:00:00 18,2 11,2 20,5 21,7 19,6 18,3 10 5 17 9 ENE 1027,0 30 0 0,0
21.08.2019 15:00:00 18,5 10,5 21,2 22,5 19,3 18,3 9 5 19 11 NE 1027,0 27 6 0,0
21.08.2019 14:00:00 18,8 10,3 24,3 23,8 18,8 18,3 10 6 21 11 E 1027,2 32 43 0,0
21.08.2019 13:00:00 18,2 10,1 25,9 23,5 18,4 18,3 8 4 18 10 NE 1027,7 25 40 0,0
21.08.2019 12:00:00 17,1 11,0 22,7 22,5 17,9 18,3 10 6 17 9 NE 1028,4 23 50 0,0
21.08.2019 11:00:00 16,1 11,7 20,3 21,7 17,4 18,3 9 5 14 8 NE 1028,7 23 54 0,0
21.08.2019 10:00:00 15,2 11,5 21,2 19,8 17,2 18,3 7 4 15 8 N 1028,8 17 41 0,0
21.08.2019 09:00:00 14,2 12,1 16,0 16,4 17,2 18,3 2 1 9 5 NNW 1029,0 14 1 0,0
21.08.2019 08:00:00 13,0 12,2 13,9 14,9 17,3 18,3 5 3 7 4 W 1029,4 6 0 0,0
21.08.2019 07:00:00 12,3 12,0 12,2 14,4 17,4 18,3 2 1 5 3 NW 1029,3 3,2 0 0,1
21.08.2019 06:00:00 12,6 12,0 12,5 14,5 17,5 18,3 5 3 8 4 WSW 1029,0 7 0 0,0
21.08.2019 05:00:00 12,7 12,2 12,5 14,6 17,7 18,3 5 3 10 6 WSW 1028,5 7 0 0,0
21.08.2019 04:00:00 12,8 12,3 12,8 14,7 17,8 18,3 8 5 12 7 SW 1028,8 8 0 0,5
21.08.2019 03:00:00 12,8 12,3 12,8 14,8 18,0 18,3 8 4 11 6 W 1028,1 8 0 0,3
21.08.2019 02:00:00 12,7 12,2 12,7 14,9 18,2 18,3 5 3 11 6 W 1027,9 6 0 2,8
21.08.2019 01:00:00 12,8 12,2 12,8 15,2 18,6 18,3 9 5 20 11 WNW 1028,2 3,3 0 2,6
21.08.2019 00:00:00 13,1 12,4 13,2 15,5 18,9 18,3 13 7 26 14 WNW 1027,2 5 0 1,9
20.08.2019 23:00:00 13,4 12,7 13,5 15,9 19,2 18,3 14 8 31 17 WNW 1026,9 4,2 0 1,5
20.08.2019 22:00:00 14,0 13,2 14,0 16,4 19,4 18,3 16 8 27 14 WNW 1025,4 7 0 1,6
20.08.2019 21:00:00 14,2 13,5 14,3 16,7 19,7 18,3 11 6 26 14 W 1024,9 7 0 0,5
20.08.2019 20:00:00 14,0 13,1 14,0 17,1 20,0 18,3 16 9 32 17 NW 1023,5 5 0 2,4
20.08.2019 19:00:00 14,9 14,1 15,0 18,2 20,3 18,2 21 12 36 19 NW 1022,2 2,4 0 1,7
20.08.2019 18:00:00 15,8 15,0 16,0 19,5 20,4 18,2 21 11 37 20 WNW 1021,3 3,7 0 2,7
20.08.2019 17:00:00 18,1 16,7 18,3 20,8 20,3 18,2 0 0 12 6 N 1020,0 7 0 0,0
20.08.2019 16:00:00 18,8 17,1 19,5 21,5 20,2 18,2 6 3 11 6 N 1019,5 11 0 0,0
20.08.2019 15:00:00 19,1 17,5 20,4 22,1 20,1 18,2 5 3 12 7 N 1019,8 7 0 0,1
20.08.2019 14:00:00 18,9 17,1 20,2 21,6 19,9 18,2 6 3 9 5 N 1020,0 7 0 0,4
20.08.2019 13:00:00 18,7 17,1 19,6 21,0 19,8 18,2 3 2 6 4 NNW 1020,3 6 0 0,5
20.08.2019 12:00:00 18,7 17,3 19,4 20,8 19,7 18,2 4 2 7 4 NW 1020,5 8 0 0,3
20.08.2019 11:00:00 18,4 16,5 19,3 20,6 19,5 18,2 3 2 7 4 NNE 1020,4 17 0 0,0
20.08.2019 10:00:00 18,5 16,2 20,1 20,5 19,4 18,2 3 2 5 3 N 1020,2 21 0 0,0
20.08.2019 09:00:00 17,9 16,0 18,7 19,4 19,4 18,2 2 1 6 3 E 1020,2 22 1 0,0
20.08.2019 08:00:00 16,3 15,6 16,8 17,9 19,5 18,2 4 2 5 3 N 1020,4 8 9 0,0
20.08.2019 07:00:00 15,6 15,3 15,5 17,5 19,7 18,2 4 2 7 4 ESE 1020,2 10 0 0,0
20.08.2019 06:00:00 15,5 15,3 15,5 17,5 19,9 18,2 3 2 6 3 ENE 1020,2 5 0 0,0
20.08.2019 05:00:00 15,7 15,4 15,5 17,7 20,1 18,2 2 1 13 7 E 1020,1 17 0 0,2
20.08.2019 04:00:00 15,9 15,6 15,9 17,9 20,3 18,2 4 2 14 8 E 1019,7 11 0 1,6
20.08.2019 03:00:00 16,1 15,2 15,9 18,3 20,5 18,1 5 3 26 14 SW 1020,8 3,0 0 17,2
20.08.2019 02:00:00 17,3 16,4 17,3 18,9 20,7 18,1 4 2 15 8 NW 1019,7 18 0 0,0
20.08.2019 01:00:00 17,2 16,6 17,2 19,1 21,0 18,1 3 2 12 6 WNW 1019,6 11 0 0,0
20.08.2019 00:00:00 17,5 16,9 17,1 19,3 21,2 18,1 3 1 17 9 E 1019,7 10 0 1,9
19.08.2019 23:00:00 17,7 16,7 17,4 19,7 21,5 18,1 6 4 13 7 E 1019,6 5 0 3,1
19.08.2019 22:00:00 18,1 16,6 18,2 20,2 21,7 18,1 3 2 10 5 NE 1019,0 27 0 0,0
19.08.2019 21:00:00 19,1 16,0 18,0 20,6 21,9 18,1 7 4 13 7 N 1018,4 32 0 0,0
19.08.2019 20:00:00 20,4 16,3 20,0 22,0 22,1 18,1 8 5 14 8 N 1017,9 36 11 0,0
19.08.2019 19:00:00 21,2 17,1 21,4 23,4 22,0 18,0 7 4 19 10 N 1017,3 34 16 0,0
19.08.2019 18:00:00 23,2 16,7 28,4 24,8 21,9 18,0 7 4 12 7 N 1016,6 33 16 0,0
19.08.2019 17:00:00 23,3 15,6 25,7 25,4 21,6 18,0 4 2 16 9 WNW 1016,6 37 49 0,0
19.08.2019 16:00:00 22,8 15,5 25,1 25,4 21,3 18,0 11 6 18 10 SW 1017,1 35 33 0,0
19.08.2019 15:00:00 22,1 15,6 25,4 24,2 21,1 18,0 8 4 13 7 WSW 1017,4 39 4 0,0
19.08.2019 14:00:00 21,2 16,3 23,9 23,4 21,0 18,0 8 4 16 9 WNW 1017,3 32 0 0,0
19.08.2019 13:00:00 21,0 16,4 22,7 23,6 20,7 18,0 10 5 18 10 WSW 1017,1 35 20 0,0
19.08.2019 12:00:00 20,3 15,5 23,1 23,0 20,5 18,0 10 5 19 10 SW 1017,4 33 12 0,1
19.08.2019 11:00:00 18,8 16,8 19,1 20,6 20,5 18,0 6 3 12 7 SSW 1017,5 16 0 0,1
19.08.2019 10:00:00 18,4 16,5 19,3 20,2 20,6 18,0 7 4 10 6 SSE 1017,0 25 0 0,0
19.08.2019 09:00:00 17,7 16,3 18,2 19,4 20,7 18,0 4 2 14 8 S 1017,5 24 0 0,0
19.08.2019 08:00:00 16,7 16,0 16,8 18,6 21,0 18,0 8 4 13 7 SSW 1017,1 12 0 0,4

tt = temperature
td = dewpoint
tt 5cm = temperature 5cm
tt -5cm = temperature -5cm
tt -20cm = temperature -20cm
tt -100cm = temperature -100cm
ff = wind speed
fx = gusts
dd = wind direction
ppp = reduced air pressure
vv = visibility
sd = sunshine duration
rr = precipitation

Next stations